Tracking 19846 objects as of 18-Sep-2019
HD Live streaming from Space Station
objects crossing your sky now

FENGYUN 1C DEB

Track FENGYUN 1C DEB now!
10-day predictions


NORAD ID: 31018
Int'l Code: 1999-025BDL
Perigee: 836.1 km
Apogee: 935.6 km
Inclination: 99.2 °
Period: 102.5 minutes
Semi major axis: 7256 km
RCS: 0.0147 m2 (small)
Launch date: May 10, 1999
Source: People's Republic of China (PRC)
Launch site: Taiyaun Space Center, China (TSC)

Note: This is SATELLITE DEBRIS
aabbcc
Your satellite tracking list
Your tracking list is empty




NASA's NSSDC Master Catalog

Two Line Element Set (TLE):
1 31018U 99025BDL 19260.05980900  .00000381  00000-0  26266-3 0  9994
2 31018  99.1636 298.8785 0068560  10.2632 349.9916 14.04362809639887
Source of the keplerian elements: AFSPC